Location: Feydey
(46.3431°N, 7.0106°E)
Time: 19:58:11
(UTC+00:00)

Cosmos 1328 - Pass Details

Date: 21 October 2021
Orbit: 529 x 552 km, 82.5° (Epoch: 03 December)

Event Time Altitude Azimuth Distance (km) Brightness Sun altitude
Rises 19:17:15 0° 329° (NNW) 2,734 8.0 -28.6°
Reaches altitude 10° 19:21:02 10° 292° (WNW) 1,835 7.4 -29.2°
Maximum altitude 19:22:04 11° 277° (W) 1,778 7.3 -29.4°
Drops below altitude 10° 19:23:06 10° 262° (W) 1,832 7.2 -29.6°
Sets 19:26:53 0° 226° (SW) 2,719 7.7 -30.2°
